Location: Poughquag
(41.6090°N, 73.6820°W)
Time: 12:18:49
(UTC-04:00)

Transit 2A - Pass Details

Date: 29 May 2020
Orbit: 592 x 967 km, 66.7° (Epoch: 06 July)

Event Time Altitude Azimuth Distance (km) Brightness Sun altitude
Rises 14:05:01 0° 197° (SSW) 2,968 9.4 65.0°
Reaches altitude 10° 14:07:13 10° 193° (SSW) 2,107 8.8 64.7°
Maximum altitude 14:11:55 58° 115° (ESE) 845 7.0 64.0°
Drops below altitude 10° 14:17:11 10° 37° (NE) 2,360 8.4 63.3°
Sets 14:19:47 0° 34° (NE) 3,358 9.1 63.0°
